| time (UTC) | temp F | wind direction | speed MPH | gust MPH | rain 1hr in | rain 24hr in | rain mn in | humidity % | barometer mb |
| 20260506032928 | 71 | 68 | 6.0 | 10.0 | 0.00 | 0.00 | 0.00 | 43 | 1208.4 |
| 20260506032237 | 70 | 45 | 7.0 | 11.0 | 0.00 | 0.00 | 0.00 | 44 | 1204.4 |
| 20260506031737 | 70 | 90 | 11.0 | 11.0 | 0.00 | 0.00 | 0.00 | 45 | 1204.4 |
| 20260506031237 | 70 | 30 | 5.0 | 8.0 | 0.00 | 0.00 | 0.00 | 45 | 1201.4 |
| 20260506030737 | 70 | 82 | 6.0 | 8.0 | 0.00 | 0.00 | 0.00 | 46 | 1201.4 |
| 20260506030045 | 70 | 107 | 3.0 | 6.0 | 0.00 | 0.00 | 0.00 | 49 | 1201.4 |
| 20260506025545 | 69 | 98 | 3.0 | 8.0 | 0.00 | 0.00 | 0.00 | 50 | 1199.3 |
| 20260506025045 | 69 | 68 | 6.0 | 8.0 | 0.00 | 0.00 | 0.00 | 50 | 1199.3 |
| 20260506024545 | 68 | 56 | 5.0 | 8.0 | 0.00 | 0.00 | 0.00 | 50 | 1199.3 |
| 20260506024045 | 68 | 79 | 7.0 | 9.0 | 0.00 | 0.00 | 0.00 | 51 | 1197.3 |
| 20260506023354 | 68 | 90 | 5.0 | 9.0 | 0.00 | 0.00 | 0.00 | 53 | 1197.3 |
| 20260506022854 | 67 | 52 | 4.0 | 9.0 | 0.00 | 0.00 | 0.00 | 53 | 1197.3 |
| 20260506022354 | 67 | 60 | 4.0 | 11.0 | 0.00 | 0.00 | 0.00 | 54 | 1192.3 |
| 20260506021854 | 67 | 68 | 4.0 | 11.0 | 0.00 | 0.00 | 0.00 | 55 | 1192.3 |
| 20260506021354 | 66 | 90 | 6.0 | 9.0 | 0.00 | 0.00 | 0.00 | 56 | 1192.3 |
| 20260506020854 | 66 | 90 | 6.0 | 9.0 | 0.00 | 0.00 | 0.00 | 57 | 1193.3 |
| 20260506020203 | 66 | 75 | 6.0 | 9.0 | 0.00 | 0.00 | 0.00 | 58 | 1193.3 |
| 20260506015703 | 65 | 112 | 3.0 | 9.0 | 0.00 | 0.00 | 0.00 | 58 | 1193.3 |
| 20260506015203 | 65 | 98 | 5.0 | 9.0 | 0.00 | 0.00 | 0.00 | 59 | 1193.3 |
| 20260506014703 | 65 | 60 | 5.0 | 9.0 | 0.00 | 0.00 | 0.00 | 59 | 1193.3 |
| 20260506014203 | 64 | 45 | 8.0 | 9.0 | 0.00 | 0.00 | 0.00 | 60 | 1191.3 |
| 20260506013703 | 64 | 90 | 5.0 | 8.0 | 0.00 | 0.00 | 0.00 | 61 | 1191.3 |
| 20260506013012 | 64 | 90 | 5.0 | 10.0 | 0.00 | 0.00 | 0.00 | 62 | 1191.3 |
| 20260506012321 | 64 | 68 | 10.0 | 10.0 | 0.00 | 0.00 | 0.00 | 63 | 1190.2 |
| 20260506011820 | 63 | 68 | 6.0 | 9.0 | 0.00 | 0.00 | 0.00 | 63 | 1190.2 |
| 20260506011320 | 63 | 76 | 8.0 | 9.0 | 0.00 | 0.00 | 0.00 | 64 | 1190.2 |
| 20260506010820 | 63 | 68 | 8.0 | 9.0 | 0.00 | 0.00 | 0.00 | 64 | 1190.2 |
| 20260506010321 | 63 | 82 | 4.0 | 6.0 | 0.00 | 0.00 | 0.00 | 65 | 1190.2 |
| 20260506005821 | 63 | 79 | 4.0 | 10.0 | 0.00 | 0.00 | 0.00 | 65 | 1190.2 |
| 20260506005320 | 63 | 90 | 10.0 | 10.0 | 0.00 | 0.00 | 0.00 | 66 | 1189.2 |
| 20260506004821 | 62 | 68 | 3.0 | 7.0 | 0.00 | 0.00 | 0.00 | 66 | 1189.2 |
| 20260506004129 | 62 | 79 | 6.0 | 7.0 | 0.00 | 0.00 | 0.00 | 67 | 1189.2 |
| 20260506003629 | 62 | 90 | 2.0 | 6.0 | 0.00 | 0.00 | 0.00 | 67 | 1189.2 |
| 20260506003129 | 61 | 112 | 5.0 | 6.0 | 0.00 | 0.00 | 0.00 | 67 | 1189.2 |
| 20260506002629 | 61 | 90 | 1.0 | 4.0 | 0.00 | 0.00 | 0.00 | 67 | 1186.2 |
| 20260506002129 | 61 | 79 | 4.0 | 4.0 | 0.00 | 0.00 | 0.00 | 67 | 1186.2 |
| 20260506001438 | 61 | 90 | 4.0 | 4.0 | 0.00 | 0.00 | 0.00 | 67 | 1186.2 |
| 20260506000938 | 60 | 90 | 4.0 | 4.0 | 0.00 | 0.00 | 0.00 | 67 | 1189.2 |
| 20260506000438 | 60 | 68 | 4.0 | 6.0 | 0.00 | 0.00 | 0.00 | 67 | 1189.2 |
| 20260505235938 | 60 | 101 | 5.0 | 6.0 | 0.00 | 0.00 | 0.00 | 67 | 1189.2 |
| 20260505235246 | 60 | 0.0 | 0.0 | 0.00 | 0.00 | 0.00 | 67 | 1186.2 | |
| 20260505234747 | 59 | 0.0 | 0.0 | 0.00 | 0.00 | 0.00 | 67 | 1186.2 | |
| 20260505234247 | 59 | 0.0 | 0.0 | 0.00 | 0.00 | 0.00 | 67 | 1188.2 | |
| 20260505233747 | 59 | 0.0 | 0.0 | 0.00 | 0.00 | 0.00 | 67 | 1188.2 | |
| 20260505233246 | 59 | 0.0 | 0.0 | 0.00 | 0.00 | 0.00 | 67 | 1188.2 | |
| 20260505232747 | 59 | 0.0 | 0.0 | 0.00 | 0.00 | 0.00 | 67 | 1191.3 | |
| 20260505232055 | 59 | 0.0 | 0.0 | 0.00 | 0.00 | 0.00 | 67 | 1191.3 | |
| 20260505231555 | 59 | 0.0 | 0.0 | 0.00 | 0.00 | 0.00 | 66 | 1191.3 | |
| 20260505231055 | 59 | 0.0 | 0.0 | 0.00 | 0.00 | 0.00 | 66 | 1193.3 | |
| 20260505230555 | 59 | 0.0 | 0.0 | 0.00 | 0.00 | 0.00 | 66 | 1193.3 | |
| 20260505230055 | 59 | 0.0 | 0.0 | 0.00 | 0.00 | 0.00 | 66 | 1193.3 | |
| 20260505225555 | 59 | 0.0 | 0.0 | 0.00 | 0.00 | 0.00 | 66 | 1197.3 | |
| 20260505224904 | 59 | 0.0 | 0.0 | 0.00 | 0.00 | 0.00 | 66 | 1197.3 | |
| 20260505224404 | 59 | 0.0 | 0.0 | 0.00 | 0.00 | 0.00 | 66 | 1197.3 | |
| 20260505223903 | 59 | 0.0 | 0.0 | 0.00 | 0.00 | 0.00 | 65 | 1196.3 | |
| 20260505223404 | 59 | 0.0 | 0.0 | 0.00 | 0.00 | 0.00 | 65 | 1196.3 | |
| 20260505222712 | 59 | 0.0 | 0.0 | 0.00 | 0.00 | 0.00 | 65 | 1197.3 | |
| 20260505222213 | 59 | 0.0 | 0.0 | 0.00 | 0.00 | 0.00 | 65 | 1197.3 | |
| 20260505221712 | 59 | 0.0 | 0.0 | 0.00 | 0.00 | 0.00 | 65 | 1197.3 | |
| 20260505221212 | 60 | 0.0 | 0.0 | 0.00 | 0.00 | 0.00 | 65 | 1196.3 | |
| 20260505220712 | 60 | 0 | 0.0 | 4.0 | 0.00 | 0.00 | 0.00 | 65 | 1196.3 |
| 20260505220021 | 60 | 112 | 4.0 | 4.0 | 0.00 | 0.00 | 0.00 | 64 | 1196.3 |
| 20260505215521 | 59 | 112 | 4.0 | 4.0 | 0.00 | 0.00 | 0.00 | 64 | 1195.3 |
| 20260505215021 | 60 | 112 | 3.0 | 4.0 | 0.00 | 0.00 | 0.00 | 64 | 1195.3 |
| 20260505214521 | 60 | 112 | 3.0 | 4.0 | 0.00 | 0.00 | 0.00 | 64 | 1195.3 |
| 20260505214021 | 59 | 112 | 4.0 | 4.0 | 0.00 | 0.00 | 0.00 | 63 | 1200.3 |
| 20260505213521 | 60 | 135 | 3.0 | 4.0 | 0.00 | 0.00 | 0.00 | 63 | 1200.3 |
| 20260505212830 | 59 | 124 | 3.0 | 4.0 | 0.00 | 0.00 | 0.00 | 63 | 1200.3 |
| 20260505212330 | 59 | 112 | 3.0 | 3.0 | 0.00 | 0.00 | 0.00 | 62 | 1201.4 |
| 20260505211830 | 59 | 112 | 3.0 | 4.0 | 0.00 | 0.00 | 0.00 | 62 | 1201.4 |
| 20260505211138 | 59 | 112 | 3.0 | 6.0 | 0.00 | 0.00 | 0.00 | 62 | 1201.4 |
| 20260505210639 | 59 | 90 | 6.0 | 6.0 | 0.00 | 0.00 | 0.00 | 62 | 1201.4 |
| 20260505210139 | 60 | 90 | 6.0 | 6.0 | 0.00 | 0.00 | 0.00 | 61 | 1201.4 |
| 20260505205638 | 60 | 90 | 6.0 | 6.0 | 0.00 | 0.00 | 0.00 | 61 | 1201.4 |
| 20260505205139 | 60 | 90 | 3.0 | 3.0 | 0.00 | 0.00 | 0.00 | 61 | 1201.4 |
| 20260505204638 | 60 | 101 | 3.0 | 3.0 | 0.00 | 0.00 | 0.00 | 61 | 1201.4 |
| 20260505203947 | 60 | 112 | 3.0 | 3.0 | 0.00 | 0.00 | 0.00 | 60 | 1202.4 |
| 20260505203448 | 60 | 0.0 | 0.0 | 0.00 | 0.00 | 0.00 | 60 | 1202.4 | |
| 20260505202947 | 60 | 0.0 | 0.0 | 0.00 | 0.00 | 0.00 | 60 | 1202.4 | |
| 20260505202447 | 60 | 0.0 | 0.0 | 0.00 | 0.00 | 0.00 | 60 | 1201.4 | |
| 20260505201756 | 60 | 0.0 | 0.0 | 0.00 | 0.00 | 0.00 | 59 | 1201.4 | |
| 20260505201256 | 60 | 0.0 | 0.0 | 0.00 | 0.00 | 0.00 | 59 | 1202.4 | |
| 20260505200756 | 60 | 0.0 | 0.0 | 0.00 | 0.00 | 0.00 | 59 | 1202.4 | |
| 20260505200256 | 60 | 0.0 | 0.0 | 0.00 | 0.00 | 0.00 | 59 | 1202.4 | |
| 20260505195756 | 60 | 0.0 | 0.0 | 0.00 | 0.00 | 0.00 | 58 | 1204.4 | |
| 20260505195256 | 60 | 0.0 | 0.0 | 0.00 | 0.00 | 0.00 | 58 | 1204.4 | |
| 20260505194604 | 60 | 0.0 | 0.0 | 0.00 | 0.00 | 0.00 | 58 | 1204.4 | |
| 20260505194105 | 60 | 0.0 | 0.0 | 0.00 | 0.00 | 0.00 | 58 | 1204.4 | |
| 20260505193605 | 60 | 0.0 | 0.0 | 0.00 | 0.00 | 0.00 | 58 | 1204.4 | |
| 20260505193104 | 60 | 0.0 | 0.0 | 0.00 | 0.00 | 0.00 | 58 | 1204.4 | |
| 20260505192604 | 61 | 0.0 | 0.0 | 0.00 | 0.00 | 0.00 | 58 | 1205.4 | |
| 20260505192104 | 61 | 0.0 | 0.0 | 0.00 | 0.00 | 0.00 | 57 | 1205.4 | |
| 20260505191604 | 61 | 0.0 | 0.0 | 0.00 | 0.00 | 0.00 | 57 | 1205.4 | |
| 20260505190913 | 61 | 0.0 | 0.0 | 0.00 | 0.00 | 0.00 | 57 | 1206.4 | |
| 20260505190413 | 61 | 0.0 | 0.0 | 0.00 | 0.00 | 0.00 | 57 | 1206.4 | |
| 20260505185913 | 61 | 0.0 | 0.0 | 0.00 | 0.00 | 0.00 | 57 | 1206.4 | |
| 20260505185413 | 61 | 0.0 | 0.0 | 0.00 | 0.00 | 0.00 | 56 | 1207.4 | |
| 20260505184913 | 61 | 180 | 2.0 | 2.0 | 0.00 | 0.00 | 0.00 | 56 | 1207.4 |
| 20260505184222 | 61 | 180 | 2.0 | 2.0 | 0.00 | 0.00 | 0.00 | 56 | 1206.4 |
| 20260505183722 | 61 | 180 | 2.0 | 4.0 | 0.00 | 0.00 | 0.00 | 56 | 1206.4 |
| 20260505183030 | 61 | 135 | 4.0 | 4.0 | 0.00 | 0.00 | 0.00 | 55 | 1206.4 |
| 20260505182530 | 61 | 135 | 4.0 | 4.0 | 0.00 | 0.00 | 0.00 | 55 | 1207.4 |
| 20260505182031 | 61 | 135 | 4.0 | 4.0 | 0.00 | 0.00 | 0.00 | 55 | 1207.4 |
| 20260505181530 | 61 | 0.0 | 0.0 | 0.00 | 0.00 | 0.00 | 55 | 1207.4 | |
| 20260505181030 | 61 | 112 | 4.0 | 4.0 | 0.00 | 0.00 | 0.00 | 55 | 1208.4 |
| 20260505180530 | 61 | 112 | 4.0 | 4.0 | 0.00 | 0.00 | 0.00 | 55 | 1208.4 |
| 20260505175839 | 61 | 128 | 4.0 | 4.0 | 0.00 | 0.00 | 0.00 | 54 | 1208.4 |
| 20260505175339 | 61 | 112 | 1.0 | 1.0 | 0.00 | 0.00 | 0.00 | 54 | 1208.4 |
| 20260505174839 | 61 | 112 | 1.0 | 5.0 | 0.00 | 0.00 | 0.00 | 54 | 1208.4 |
| 20260505174339 | 61 | 101 | 3.0 | 5.0 | 0.00 | 0.00 | 0.00 | 54 | 1208.4 |
| 20260505173839 | 61 | 90 | 2.0 | 2.0 | 0.00 | 0.00 | 0.00 | 54 | 1208.4 |
| 20260505173339 | 61 | 112 | 2.0 | 3.0 | 0.00 | 0.00 | 0.00 | 54 | 1208.4 |
| 20260505172839 | 61 | 112 | 2.0 | 3.0 | 0.00 | 0.00 | 0.00 | 54 | 1208.4 |
| 20260505172148 | 61 | 79 | 3.0 | 3.0 | 0.00 | 0.00 | 0.00 | 54 | 1207.4 |
| 20260505171648 | 61 | 112 | 3.0 | 3.0 | 0.00 | 0.00 | 0.00 | 54 | 1207.4 |
| 20260505171148 | 61 | 124 | 2.0 | 2.0 | 0.00 | 0.00 | 0.00 | 54 | 1207.4 |
| 20260505170648 | 62 | 158 | 2.0 | 3.0 | 0.00 | 0.00 | 0.00 | 54 | 1207.4 |
| 20260505165956 | 62 | 68 | 2.0 | 3.0 | 0.00 | 0.00 | 0.00 | 54 | 1207.4 |
| 20260505165456 | 62 | 112 | 1.0 | 3.0 | 0.00 | 0.00 | 0.00 | 54 | 1207.4 |
| 20260505164805 | 62 | 82 | 2.0 | 3.0 | 0.00 | 0.00 | 0.00 | 54 | 1207.4 |
| 20260505164305 | 62 | 101 | 2.0 | 3.0 | 0.00 | 0.00 | 0.00 | 54 | 1207.4 |
| 20260505163805 | 62 | 90 | 2.0 | 3.0 | 0.00 | 0.00 | 0.00 | 54 | 1206.4 |
| 20260505163305 | 62 | 75 | 2.0 | 3.0 | 0.00 | 0.00 | 0.00 | 54 | 1206.4 |
| 20260505162805 | 62 | 45 | 3.0 | 3.0 | 0.00 | 0.00 | 0.00 | 54 | 1206.4 |
| 20260505162114 | 62 | 112 | 1.0 | 1.0 | 0.00 | 0.00 | 0.00 | 54 | 1204.4 |
| 20260505161614 | 62 | 112 | 1.0 | 4.0 | 0.00 | 0.00 | 0.00 | 54 | 1204.4 |
| 20260505161114 | 62 | 112 | 4.0 | 4.0 | 0.00 | 0.00 | 0.00 | 54 | 1205.4 |
| 20260505160614 | 62 | 180 | 4.0 | 4.0 | 0.00 | 0.00 | 0.00 | 55 | 1205.4 |
| 20260505160114 | 62 | 22 | 2.0 | 2.0 | 0.00 | 0.00 | 0.00 | 55 | 1205.4 |
| 20260505153231 | 63 | 101 | 0.0 | 2.0 | 0.00 | 0.00 | 0.00 | 55 | 1204.4 |
| 20260505152731 | 63 | 128 | 1.0 | 2.0 | 0.00 | 0.00 | 0.00 | 55 | 1203.4 |
| 20260505152231 | 63 | 112 | 2.0 | 2.0 | 0.00 | 0.00 | 0.00 | 55 | 1203.4 |
| 20260505151730 | 63 | 135 | 2.0 | 2.0 | 0.00 | 0.00 | 0.00 | 55 | 1203.4 |
| 20260505151230 | 64 | 90 | 2.0 | 3.0 | 0.00 | 0.00 | 0.00 | 55 | 1204.4 |
| 20260505150539 | 64 | 90 | 3.0 | 3.0 | 0.00 | 0.00 | 0.00 | 55 | 1204.4 |
| 20260505140348 | 65 | 112 | 3.0 | 3.0 | 0.00 | 0.00 | 0.00 | 53 | 1205.4 |
| 20260505124814 | 66 | 158 | 2.0 | 2.0 | 0.00 | 0.00 | 0.00 | 51 | 1210.4 |
| 20260505124314 | 66 | 158 | 2.0 | 2.0 | 0.00 | 0.00 | 0.00 | 50 | 1210.4 |
| 20260505123623 | 66 | 150 | 1.0 | 3.0 | 0.00 | 0.00 | 0.00 | 50 | 1210.4 |
| 20260505123123 | 66 | 158 | 1.0 | 3.0 | 0.00 | 0.00 | 0.00 | 50 | 1210.4 |
| 20260505122623 | 67 | 158 | 1.0 | 3.0 | 0.00 | 0.00 | 0.00 | 50 | 1209.4 |
| 20260505122123 | 67 | 135 | 3.0 | 3.0 | 0.00 | 0.00 | 0.00 | 50 | 1209.4 |
| 20260505121623 | 67 | 158 | 2.0 | 5.0 | 0.00 | 0.00 | 0.00 | 50 | 1209.4 |
| 20260505120932 | 67 | 172 | 4.0 | 5.0 | 0.00 | 0.00 | 0.00 | 51 | 1207.4 |
| 20260505120432 | 67 | 146 | 2.0 | 5.0 | 0.00 | 0.00 | 0.00 | 51 | 1207.4 |
| 20260505115931 | 67 | 158 | 1.0 | 5.0 | 0.00 | 0.00 | 0.00 | 52 | 1207.4 |
| 20260505115240 | 67 | 158 | 3.0 | 6.0 | 0.00 | 0.00 | 0.00 | 52 | 1207.4 |
| 20260505114741 | 67 | 135 | 4.0 | 6.0 | 0.00 | 0.00 | 0.00 | 52 | 1207.4 |
| 20260505114241 | 67 | 152 | 3.0 | 4.0 | 0.00 | 0.00 | 0.00 | 53 | 1208.4 |
| 20260505113741 | 68 | 98 | 3.0 | 4.0 | 0.00 | 0.00 | 0.00 | 53 | 1208.4 |
| 20260505113241 | 68 | 158 | 2.0 | 4.0 | 0.00 | 0.00 | 0.00 | 53 | 1208.4 |
| 20260505112549 | 68 | 158 | 4.0 | 4.0 | 0.00 | 0.00 | 0.00 | 53 | 1209.4 |
| 20260505112049 | 68 | 158 | 4.0 | 4.0 | 0.00 | 0.00 | 0.00 | 52 | 1209.4 |
| 20260505111549 | 68 | 158 | 3.0 | 5.0 | 0.00 | 0.00 | 0.00 | 52 | 1209.4 |
| 20260505111049 | 68 | 158 | 4.0 | 5.0 | 0.00 | 0.00 | 0.00 | 52 | 1210.4 |
| 20260505110549 | 68 | 172 | 3.0 | 6.0 | 0.00 | 0.00 | 0.00 | 51 | 1210.4 |
| 20260505102207 | 69 | 165 | 2.0 | 4.0 | 0.00 | 0.00 | 0.00 | 47 | 1214.5 |
| 20260505101707 | 69 | 195 | 3.0 | 4.0 | 0.00 | 0.00 | 0.00 | 46 | 1214.5 |
| 20260505101207 | 69 | 165 | 4.0 | 4.0 | 0.00 | 0.00 | 0.00 | 46 | 1215.5 |
| 20260505100707 | 70 | 202 | 3.0 | 4.0 | 0.00 | 0.00 | 0.00 | 45 | 1215.5 |
| 20260505100207 | 70 | 202 | 3.0 | 4.0 | 0.00 | 0.00 | 0.00 | 45 | 1215.5 |
| 20260505095515 | 70 | 158 | 4.0 | 4.0 | 0.00 | 0.00 | 0.00 | 45 | 1216.5 |
| 20260505095015 | 70 | 172 | 3.0 | 4.0 | 0.00 | 0.00 | 0.00 | 44 | 1216.5 |
| 20260505094515 | 71 | 202 | 3.0 | 6.0 | 0.00 | 0.00 | 0.00 | 44 | 1216.5 |
| 20260505094015 | 71 | 202 | 4.0 | 6.0 | 0.00 | 0.00 | 0.00 | 44 | 1217.5 |
| 20260505093515 | 71 | 165 | 3.0 | 4.0 | 0.00 | 0.00 | 0.00 | 43 | 1217.5 |
| 20260505092824 | 71 | 135 | 4.0 | 4.0 | 0.00 | 0.00 | 0.00 | 43 | 1217.5 |
| 20260505092324 | 72 | 158 | 4.0 | 4.0 | 0.00 | 0.00 | 0.00 | 42 | 1217.5 |
| 20260505091633 | 72 | 202 | 3.0 | 6.0 | 0.00 | 0.00 | 0.00 | 41 | 1217.5 |
| 20260505091133 | 72 | 225 | 6.0 | 6.0 | 0.00 | 0.00 | 0.00 | 40 | 1218.5 |
| 20260505090633 | 72 | 202 | 5.0 | 7.0 | 0.00 | 0.00 | 0.00 | 40 | 1218.5 |
| 20260505090133 | 73 | 202 | 5.0 | 7.0 | 0.00 | 0.00 | 0.00 | 39 | 1218.5 |
| 20260505085633 | 73 | 158 | 6.0 | 6.0 | 0.00 | 0.00 | 0.00 | 38 | 1219.5 |
| 20260505085133 | 73 | 202 | 6.0 | 7.0 | 0.00 | 0.00 | 0.00 | 38 | 1219.5 |
| 20260505084633 | 73 | 202 | 6.0 | 7.0 | 0.00 | 0.00 | 0.00 | 37 | 1219.5 |
| 20260505084133 | 74 | 158 | 7.0 | 11.0 | 0.00 | 0.00 | 0.00 | 35 | 1219.5 |
| 20260505083633 | 74 | 158 | 11.0 | 11.0 | 0.00 | 0.00 | 0.00 | 35 | 1219.5 |
| 20260505083133 | 74 | 158 | 6.0 | 6.0 | 0.00 | 0.00 | 0.00 | 34 | 1219.5 |
| 20260505082441 | 75 | 202 | 6.0 | 6.0 | 0.00 | 0.00 | 0.00 | 34 | 1219.5 |
| 20260505081956 | 76 | 202 | 4.0 | 4.0 | 0.00 | 0.00 | 0.00 | 34 | 1219.5 |
| 20260505081251 | 76 | 270 | 4.0 | 6.0 | 0.00 | 0.00 | 0.00 | 33 | 1219.5 |
| 20260505080559 | 77 | 188 | 5.0 | 8.0 | 0.00 | 0.00 | 0.00 | 32 | 1219.5 |
| 20260505080059 | 78 | 202 | 8.0 | 8.0 | 0.00 | 0.00 | 0.00 | 31 | 1219.5 |
| 20260505075559 | 78 | 218 | 5.0 | 6.0 | 0.00 | 0.00 | 0.00 | 31 | 1219.5 |
| 20260505075059 | 79 | 232 | 6.0 | 6.0 | 0.00 | 0.00 | 0.00 | 30 | 1219.5 |
| 20260505074559 | 79 | 225 | 4.0 | 7.0 | 0.00 | 0.00 | 0.00 | 30 | 1219.5 |
| 20260505073908 | 80 | 191 | 5.0 | 7.0 | 0.00 | 0.00 | 0.00 | 28 | 1220.5 |
| 20260505073408 | 81 | 225 | 7.0 | 7.0 | 0.00 | 0.00 | 0.00 | 24 | 1220.5 |
| 20260505072908 | 82 | 248 | 3.0 | 3.0 | 0.00 | 0.00 | 0.00 | 23 | 1220.5 |
| 20260505072408 | 84 | 0.0 | 0.0 | 0.00 | 0.00 | 0.00 | 21 | 1220.5 | |
| 20260505071908 | 85 | 0.0 | 0.0 | 0.00 | 0.00 | 0.00 | 20 | 1220.5 | |
| 20260505071217 | 87 | 158 | 6.0 | 6.0 | 0.00 | 0.00 | 0.00 | 19 | 1220.5 |
| 20260505070717 | 88 | 158 | 6.0 | 6.0 | 0.00 | 0.00 | 0.00 | 19 | 1220.5 |
| 20260505070217 | 89 | 180 | 4.0 | 6.0 | 0.00 | 0.00 | 0.00 | 18 | 1220.5 |
| 20260505065717 | 84 | 180 | 4.0 | 5.0 | 0.00 | 0.00 | 0.00 | 19 | 1220.5 |
| 20260505065216 | 85 | 248 | 4.0 | 6.0 | 0.00 | 0.00 | 0.00 | 6 | 1220.5 |
| 20260505064525 | 88 | 248 | 4.0 | 6.0 | 0.00 | 0.00 | 0.00 | 2 | 1220.5 |
| 20260505064025 | 97 | 202 | 4.0 | 5.0 | 0.00 | 0.00 | 0.00 | 2 | 1220.5 |
| 20260505063525 | 110 | 188 | 1.0 | 4.0 | 0.00 | 0.00 | 0.00 | 2 | 1220.5 |
| 20260505062834 | 107 | 202 | 3.0 | 4.0 | 0.00 | 0.00 | 0.00 | 2 | 1220.5 |
| 20260505062334 | 105 | 188 | 2.0 | 6.0 | 0.00 | 0.00 | 0.00 | 2 | 1220.5 |
| 20260505061834 | 102 | 112 | 1.0 | 6.0 | 0.00 | 0.00 | 0.00 | 2 | 1220.5 |
| 20260505061334 | 104 | 158 | 5.0 | 6.0 | 0.00 | 0.00 | 0.00 | 2 | 1220.5 |
| 20260505060643 | 101 | 146 | 5.0 | 6.0 | 0.00 | 0.00 | 0.00 | 2 | 1220.5 |
| 20260505060143 | 94 | 112 | 2.0 | 3.0 | 0.00 | 0.00 | 0.00 | 11 | 1220.5 |
| 20260505055643 | 84 | 225 | 2.0 | 2.0 | 0.00 | 0.00 | 0.00 | 26 | 1217.5 |
| 20260505055143 | 79 | 39 | 2.0 | 4.0 | 0.00 | 0.00 | 0.00 | 28 | 1217.5 |
| 20260505054643 | 79 | 292 | 1.0 | 4.0 | 0.00 | 0.00 | 0.00 | 28 | 1217.5 |
| 20260505054143 | 78 | 292 | 3.0 | 4.0 | 0.00 | 0.00 | 0.00 | 31 | 1218.5 |
| 20260505053643 | 78 | 158 | 2.0 | 3.0 | 0.00 | 0.00 | 0.00 | 32 | 1218.5 |
| 20260505053143 | 78 | 202 | 3.0 | 4.0 | 0.00 | 0.00 | 0.00 | 33 | 1218.5 |
| 20260505052452 | 77 | 158 | 4.0 | 4.0 | 0.00 | 0.00 | 0.00 | 33 | 1217.5 |
| 20260505051951 | 76 | 202 | 2.0 | 3.0 | 0.00 | 0.00 | 0.00 | 33 | 1217.5 |
| 20260505051300 | 76 | 315 | 3.0 | 4.0 | 0.00 | 0.00 | 0.00 | 34 | 1217.5 |
| 20260505050800 | 76 | 188 | 3.0 | 4.0 | 0.00 | 0.00 | 0.00 | 35 | 1216.5 |
| 20260505050300 | 76 | 112 | 2.0 | 2.0 | 0.00 | 0.00 | 0.00 | 36 | 1216.5 |
| 20260505041609 | 73 | 0 | 3.0 | 5.0 | 0.00 | 0.00 | 0.00 | 40 | 1214.5 |
| 20260505040917 | 73 | 0 | 4.0 | 5.0 | 0.00 | 0.00 | 0.00 | 41 | 1212.5 |
| 20260505040418 | 72 | 338 | 1.0 | 4.0 | 0.00 | 0.00 | 0.00 | 42 | 1212.5 |
| 20260505035918 | 72 | 338 | 1.0 | 4.0 | 0.00 | 0.00 | 0.00 | 42 | 1212.5 |
| 20260505035418 | 72 | 338 | 4.0 | 4.0 | 0.00 | 0.00 | 0.00 | 43 | 1209.4 |
| 20260505034917 | 72 | 68 | 3.0 | 3.0 | 0.00 | 0.00 | 0.00 | 43 | 1209.4 |
| 20260505034226 | 71 | 0.0 | 0.0 | 0.00 | 0.00 | 0.00 | 44 | 1205.4 | |
| 20260505033726 | 71 | 0.0 | 0.0 | 0.00 | 0.00 | 0.00 | 44 | 1205.4 |